COSMOS 1275 DEB, 42155

Orbit data source: Space-Track

COSMOS 1275 DEB, 42155 is space debris in LEO originally from a launch on Thu, 04 Jun 1981 UTC launched from the Plesetsk Missile And Space Complex (PKMTR). Debris objects in space refer to the collection of defunct objects orbiting the Earth. Examples of debris include non-operational satellites, rocket bodies, and fragments generated from explosions, collisions, or faulty payload assembly.

Loading next visibility...
Identifier
42155, 1981-053RT
Orbit
LEO
Country
Flag of CISCIS
Related business
Manufacturer
Unknown
Mission
Spacecraft
Bus & Motor
Unknown
Mass
Unknown
Launch date (UTC)
1981-06-04 (45 years ago)
Launch vehicle
Unknown
Launch site
Plesetsk Missile And Space Complex (PKMTR)
Object type
Payload
Rocket body
Debris
Shape & HBR
Unknown shape, 0.1 m
Radar Cross Section
Small (<0.1 m²)

Expand to show TLE details & history
Last TLE update: 5 days ago

TLE from 5 days ago
0 COSMOS 1275 DEB
1 42155U 81053RT  26032.58189149  .00002608  00000-0  13647-2 0  9991
2 42155  82.9097 354.0184 0040651 168.4952 191.7165 14.13591515625525
Epoch: 2026-02-01T13:57Z
TLE epoch observation values (Epoch: 2026-02-01T13:57:55.424Z)
Latitude
-0.00001°
Longitude
12.748°
Altitude
878.83 km
Speed
7.398 km/s
True Right ascension
23h 36m 04s
True Declination
0° 00' 00"
Sunlit
Object was in daylight at epoch
Visualization orbit readout
Latitude
Unknown
Longitude
Unknown
Altitude
Unknown
Speed
Unknown
Apparent Right ascension
Unknown
Apparent Declination
Unknown
Sunlit
N/A
Visualization observer readout
Local Sidereal Time
20:39:57
Azimuth
Unknown
Elevation
Unknown
Doppler factor
Unknown
Orbital elements
Apogee altitude
873.564 km
Perigee altitude
814.845 km
Semi-major axis
7,222.341 km
Eccentricity
0.00407
Inclination
82.9097°
RAAN
354.0184°
Arg. of periapsis
168.4952°
True anomaly
191.62237°
Mean anomaly
191.7165°
Eccentric anomaly
191.66939°
Mean motion
3.53611 °/min
Orbital period
101.81 mins
BSTAR
0.0013647
Loading maneuver chart data...
Computing Atmospheric mass density...
Loading historical data...
Loading historical data...
Loading historical data...
Loading historical data...
Loading historical data...
Loading historical data...
Loading historical data...

Documentation

Showing up to 5 results
|